[[{"header":{"parameterUnit":"m.s-1","parameterCategory":1,"la1":30.2992,"la2":30.254,"lo1":-89.0895,"lo2":-89.0443,"dy":0.0025,"dx":0.0025,"nx":19,"ny":19,"refTime":"2026-05-05T03:00:00:Z","depth":0,"parameterNumber":2,"parameterNumberName":"U-component_of_WINDS"},"data":[0,0,0,0.0989,0.0987,0.0909,0.0909,0.0826,0.0825,0,0,0,0,0,0,0,0,0,0,0,0.1024,0.1023,0.0989,0.0987,0.0909,0.0909,0.0826,0.0825,0,0,0,0,0,0,0,0,0,0,0,0.1024,0.1023,0.1023,0.0987,0.0909,0.0909,0.0826,0.0879,0,0,0,0,0,0,0,0,0,0,0.0952,0.0995,0.1024,0.1023,0.0987,0.0909,0.0908,0.0881,0.0875,0.0869,0,0.0867,0,0.0845,0.0821,0.082,0,0,0,0.0979,0.1,0.0968,0.1023,0.0986,0.0909,0.0942,0.0878,0.0871,0.0862,0.0866,0.0862,0.0843,0.082,0.082,0.0812,0.0813,0,0,0.0983,0.1016,0.0973,0.0965,0.0979,0.0944,0.094,0.0873,0.088,0.0865,0.086,0.0842,0.082,0.0819,0.0812,0.0812,0,0,0,0.1001,0.1019,0.0989,0.0969,0.0954,0.0942,0.0937,0.0883,0.087,0.0859,0.0841,0.0819,0.0819,0.0812,0.0812,0.0862,0,0,0,0.1003,0.103,0.0991,0.101,0.0955,0.0917,0.0948,0.0875,0.0866,0.0842,0.0819,0.0818,0.0811,0.0812,0.0859,0.088,0,0,0,0.1025,0.1032,0.1025,0.1012,0.098,0.0918,0.0901,0.0872,0.0856,0.082,0.0818,0.0811,0.0812,0.0857,0.0876,0.0886,0,0,0,0.1057,0.1071,0.1026,0.1034,0.0981,0.095,0.0901,0.0876,0.0852,0.0819,0.0811,0.0812,0.0857,0.0874,0.0884,0.09,0.091,0,0,0.1092,0.1076,0.1078,0.1036,0.1021,0.0959,0.0951,0.0897,0.0864,0.0831,0.0831,0.086,0.0876,0.0886,0.0956,0.0964,0,0,0,0.1101,0.1102,0.1091,0.107,0.103,0.0996,0.094,0.092,0.0891,0.0854,0.0866,0.0874,0.0879,0.0885,0.0892,0.0892,0.0817,0.0816,0.0816,0.1197,0.1154,0.1154,0.1101,0.108,0.1022,0.1001,0.0964,0.0926,0.093,0.0919,0.0967,0.0975,0.098,0.0982,0.0925,0.0925,0.0925,0.0925,0.1244,0.1239,0.1188,0.117,0.1124,0.1107,0.1051,0.1025,0.1002,0.0972,0.0973,0.0943,0.0991,0.099,0.0929,0.0928,0.0928,0.0927,0.0927,0.1302,0.1292,0.1267,0.123,0.1207,0.1152,0.1132,0.109,0.1051,0.1053,0.1036,0.1035,0.1028,0.1048,0.1048,0.1048,0.1048,0.1049,0.1049,0.1371,0.1342,0.1331,0.1288,0.1268,0.1236,0.1177,0.1155,0.1121,0.1092,0.1091,0.1053,0.1004,0.0992,0.1051,0.1051,0.105,0.105,0.105,0.1433,0.1412,0.1395,0.1375,0.1321,0.1299,0.1246,0.1205,0.1182,0.1173,0.1133,0.1105,0.1085,0.1079,0.1069,0.1144,0.1144,0.1144,0.1144,0.1481,0.1467,0.1439,0.1409,0.1375,0.1325,0.1305,0.1259,0.1208,0.119,0.1173,0.1156,0.1152,0.1134,0.1127,0.1117,0.1203,0.1203,0.1203,0.1516,0.1496,0.1488,0.1438,0.1392,0.1354,0.1333,0.13,0.1237,0.1204,0.1175,0.1172,0.1144,0.1138,0.1104,0.1094,0.1074,0,0]},{"header":{"parameterUnit":"m.s-1","parameterCategory":1,"la1":30.2992,"la2":30.254,"lo1":-89.0895,"lo2":-89.0443,"dy":0.0025,"dx":0.0025,"nx":19,"ny":19,"refTime":"2026-05-05T03:00:00:Z","depth":0,"parameterNumber":3,"parameterNumberName":"V-component_of_WINDS"},"data":[0,0,0,6.2118,6.2122,6.2334,6.2335,6.2598,6.26,0,0,0,0,0,0,0,0,0,0,0,6.2055,6.2057,6.2117,6.2123,6.2334,6.2335,6.2597,6.26,0,0,0,0,0,0,0,0,0,0,0,6.2054,6.2056,6.2058,6.2123,6.2333,6.2335,6.2597,6.2439,0,0,0,0,0,0,0,0,0,0,6.2235,6.2177,6.2056,6.2058,6.2125,6.2333,6.2335,6.2432,6.2449,6.25,0,6.2549,0,6.2579,6.2618,6.2619,0,0,0,6.2122,6.2163,6.222,6.2059,6.2127,6.2333,6.2238,6.2441,6.2461,6.2523,6.2553,6.2563,6.2584,6.2619,6.2621,6.2927,6.2928,0,0,6.211,6.2092,6.2207,6.2233,6.2204,6.2232,6.2245,6.2453,6.2483,6.2554,6.2569,6.2588,6.2621,6.2623,6.2926,6.2927,0,0,0,6.2077,6.2084,6.2136,6.2222,6.2261,6.2238,6.2253,6.2474,6.2493,6.2572,6.2591,6.2623,6.2626,6.2924,6.2926,6.298,0,0,0,6.207,6.2064,6.2131,6.2122,6.2257,6.2371,6.2269,6.2478,6.2502,6.259,6.2623,6.2628,6.2922,6.2925,6.2975,6.3007,0,0,0,6.2041,6.2061,6.2092,6.212,6.2211,6.2368,6.2399,6.2484,6.2514,6.2619,6.2629,6.2921,6.2925,6.2971,6.3,6.3081,0,0,0,6.2003,6.2136,6.2092,6.2247,6.2209,6.2401,6.2398,6.2541,6.2638,6.2624,6.2923,6.2926,6.2969,6.2996,6.3077,6.3145,6.3172,0,0,6.216,6.2154,6.2247,6.2214,6.2409,6.237,6.2573,6.2677,6.2703,6.285,6.2857,6.2977,6.3,6.308,6.3336,6.3357,0,0,0,6.229,6.2356,6.2412,6.2504,6.2589,6.2663,6.274,6.2778,6.2904,6.2776,6.3029,6.3044,6.3092,6.3125,6.3143,6.3184,6.2941,6.2941,6.2941,6.2483,6.2511,6.2665,6.2718,6.2807,6.2885,6.2958,6.3023,6.3023,6.3083,6.3126,6.3278,6.3316,6.333,6.3373,6.3166,6.3166,6.3166,6.3166,6.2712,6.2809,6.2808,6.2958,6.2985,6.3109,6.3188,6.3184,6.3301,6.3248,6.3291,6.3228,6.3353,6.3391,6.3171,6.317,6.3169,6.3169,6.3169,6.284,6.2891,6.2938,6.3073,6.3174,6.3222,6.3335,6.3356,6.3376,6.3419,6.3465,6.3464,6.3464,6.344,6.3441,6.3441,6.3442,6.3442,6.3442,6.2953,6.3004,6.3098,6.3199,6.3261,6.3344,6.3422,6.3482,6.3553,6.3559,6.3559,6.3552,6.3362,6.3312,6.3451,6.3449,6.3448,6.3447,6.3447,6.3171,6.3125,6.3271,6.3333,6.3452,6.3549,6.3575,6.3695,6.3747,6.3802,6.3786,6.3643,6.3637,6.3623,6.3581,6.3782,6.3782,6.3782,6.3782,6.3277,6.3278,6.343,6.3527,6.3624,6.3662,6.3822,6.3884,6.394,6.3973,6.3948,6.3896,6.388,6.3883,6.3863,6.3825,6.4083,6.4083,6.4083,6.3412,6.3423,6.3556,6.3613,6.3708,6.3788,6.3938,6.4046,6.41,6.4096,6.3999,6.3986,6.3902,6.3874,6.3865,6.3834,6.3764,0,0]}]]